KAZSAT-2

Last updated on Sun Apr 12 2026 00:02:52 GMT+0000 (Coordinated Universal Time)

1 37749U 11035B 26100.89608858 -.00000197 00000+0 00000+0 0 9997 2 37749 0.0334 301.2261 0000905 146.1257 160.8571 1.00274797 52728
UTC large
Height (km)
Speed (km/s)
/
Latitude / Longitude
Inclination (degrees)
Orbital Period (minutes)
Azimuth
Elevation
Range (km)
Doppler Factor

Next 0 passes for location: London (51.5072 / 0.1276)

Sorry there are no passes over London.
KAZSAT-2